contact:dominique.lefevre@mio.osupytheas.fr, maurice.libes@osupytheas.fr, didier.mallarino@osupytheas.fr
Project:EMSO http://www.emso-fr.org/EMSO-France
Depth: 2436.0 m
Title:EMSO Ligure Ouest : Data MII capteur CSTAR
DateTime,Latitude,Longitude,Instrument_Serial,Reference_Counts,Signal_Counts,Corrected_Signal_raw_counts,Calculated_Beam_c_inverse_meters,Internal_thermistor_counts
DateTime,Latitude,Longitude,Instrument_Serial,Reference_Counts,Signal_Counts,Corrected_Signal_raw_counts,Calculated_Beam_c_inverse_meters,Internal_thermistor_counts
2019-11-13T00:02:58,42.805,6.029,CST-1368DR,7379,10335,15308,0.080,551
2019-11-13T00:06:00,42.805,6.029,CST-1368DR,7379,10336,15310,0.079,551
2019-11-13T00:09:01,42.805,6.029,CST-1368DR,7379,10336,15309,0.079,551
2019-11-13T00:12:03,42.805,6.029,CST-1368DR,7379,10337,15310,0.079,551
2019-11-13T00:15:05,42.805,6.029,CST-1368DR,7379,10337,15310,0.079,551
2019-11-13T00:18:06,42.805,6.029,CST-1368DR,7379,10337,15310,0.079,551
2019-11-13T00:21:08,42.805,6.029,CST-1368DR,7379,10337,15310,0.079,551
2019-11-13T00:24:10,42.805,6.029,CST-1368DR,7379,10336,15310,0.079,551
2019-11-13T00:27:11,42.805,6.029,CST-1368DR,7379,10337,15311,0.079,550
2019-11-13T00:30:13,42.805,6.029,CST-1368DR,7379,10337,15310,0.079,551
2019-11-13T00:33:15,42.805,6.029,CST-1368DR,7379,10336,15309,0.079,551
2019-11-13T00:36:16,42.805,6.029,CST-1368DR,7379,10337,15310,0.079,551
2019-11-13T00:39:18,42.805,6.029,CST-1368DR,7379,10335,15308,0.080,551
2019-11-13T00:42:19,42.805,6.029,CST-1368DR,7379,10337,15310,0.079,551
2019-11-13T00:45:21,42.805,6.029,CST-1368DR,7379,10337,15310,0.079,551
2019-11-13T00:48:23,42.805,6.029,CST-1368DR,7379,10335,15307,0.080,551
2019-11-13T00:51:24,42.805,6.029,CST-1368DR,7379,10336,15309,0.079,551
2019-11-13T00:54:26,42.805,6.029,CST-1368DR,7379,10336,15309,0.079,551
2019-11-13T00:57:28,42.805,6.029,CST-1368DR,7379,10337,15310,0.079,551
2019-11-13T01:00:29,42.805,6.029,CST-1368DR,7379,10336,15309,0.079,551
2019-11-13T01:03:31,42.805,6.029,CST-1368DR,7379,10336,15308,0.080,551
2019-11-13T01:06:33,42.805,6.029,CST-1368DR,7379,10335,15308,0.080,551
2019-11-13T01:09:34,42.805,6.029,CST-1368DR,7379,10335,15308,0.080,551
2019-11-13T01:12:36,42.805,6.029,CST-1368DR,7379,10334,15307,0.080,551
2019-11-13T01:15:38,42.805,6.029,CST-1368DR,7379,10335,15308,0.080,551
2019-11-13T01:18:39,42.805,6.029,CST-1368DR,7379,10334,15306,0.080,551
2019-11-13T01:21:41,42.805,6.029,CST-1368DR,7379,10335,15307,0.080,551
2019-11-13T01:24:43,42.805,6.029,CST-1368DR,7379,10335,15307,0.080,551
2019-11-13T01:27:44,42.805,6.029,CST-1368DR,7379,10335,15308,0.080,551
2019-11-13T01:30:46,42.805,6.029,CST-1368DR,7379,10334,15306,0.080,551
2019-11-13T01:33:48,42.805,6.029,CST-1368DR,7379,10333,15305,0.080,551
2019-11-13T01:36:49,42.805,6.029,CST-1368DR,7379,10334,15307,0.080,551
2019-11-13T01:39:51,42.805,6.029,CST-1368DR,7379,10335,15308,0.080,551
2019-11-13T01:42:53,42.805,6.029,CST-1368DR,7379,10336,15309,0.079,551
2019-11-13T01:45:54,42.805,6.029,CST-1368DR,7379,10336,15309,0.079,551
2019-11-13T01:48:56,42.805,6.029,CST-1368DR,7379,10336,15309,0.079,551
2019-11-13T01:51:58,42.805,6.029,CST-1368DR,7379,10336,15308,0.080,551
2019-11-13T01:54:59,42.805,6.029,CST-1368DR,7379,10336,15309,0.079,551
2019-11-13T01:58:01,42.805,6.029,CST-1368DR,7379,10336,15309,0.079,551
2019-11-13T02:01:03,42.805,6.029,CST-1368DR,7379,10336,15309,0.079,551
2019-11-13T02:04:04,42.805,6.029,CST-1368DR,7379,10336,15309,0.079,550
2019-11-13T02:07:06,42.805,6.029,CST-1368DR,7379,10331,15301,0.082,551
2019-11-13T02:10:08,42.805,6.029,CST-1368DR,7379,10336,15309,0.079,551
2019-11-13T02:13:09,42.805,6.029,CST-1368DR,7379,10335,15308,0.080,551
2019-11-13T02:16:11,42.805,6.029,CST-1368DR,7379,10335,15308,0.080,551
2019-11-13T02:19:13,42.805,6.029,CST-1368DR,7379,10336,15309,0.079,551
2019-11-13T02:22:14,42.805,6.029,CST-1368DR,7379,10334,15307,0.080,551
2019-11-13T02:25:16,42.805,6.029,CST-1368DR,7378,10334,15308,0.080,551
2019-11-13T02:28:18,42.805,6.029,CST-1368DR,7378,10336,15311,0.079,551
2019-11-13T02:31:19,42.805,6.029,CST-1368DR,7379,10336,15309,0.079,551
2019-11-13T02:34:21,42.805,6.029,CST-1368DR,7379,10335,15307,0.080,551
2019-11-13T02:37:23,42.805,6.029,CST-1368DR,7378,10335,15310,0.079,551
2019-11-13T02:40:24,42.805,6.029,CST-1368DR,7378,10336,15311,0.079,551
2019-11-13T02:43:26,42.805,6.029,CST-1368DR,7378,10335,15309,0.079,551
2019-11-13T02:46:28,42.805,6.029,CST-1368DR,7378,10335,15310,0.079,551
2019-11-13T02:49:30,42.805,6.029,CST-1368DR,7379,10335,15308,0.080,551
2019-11-13T02:52:32,42.805,6.029,CST-1368DR,7378,10336,15310,0.079,551
2019-11-13T02:55:33,42.805,6.029,CST-1368DR,7378,10336,15310,0.079,551
2019-11-13T02:58:35,42.805,6.029,CST-1368DR,7378,10337,15312,0.079,551
2019-11-13T03:01:36,42.805,6.029,CST-1368DR,7379,10334,15306,0.080,551
2019-11-13T03:04:38,42.805,6.029,CST-1368DR,7378,10333,15307,0.080,551
2019-11-13T03:07:40,42.805,6.029,CST-1368DR,7378,10337,15312,0.079,551
2019-11-13T03:10:41,42.805,6.029,CST-1368DR,7378,10336,15310,0.079,551
2019-11-13T03:13:43,42.805,6.029,CST-1368DR,7378,10334,15308,0.080,551
2019-11-13T03:16:45,42.805,6.029,CST-1368DR,7378,10335,15310,0.079,551
2019-11-13T03:19:46,42.805,6.029,CST-1368DR,7378,10334,15308,0.080,551
2019-11-13T03:22:48,42.805,6.029,CST-1368DR,7378,10332,15304,0.081,551
2019-11-13T03:25:50,42.805,6.029,CST-1368DR,7378,10335,15309,0.079,551
2019-11-13T03:28:51,42.805,6.029,CST-1368DR,7378,10336,15310,0.079,551
2019-11-13T03:31:53,42.805,6.029,CST-1368DR,7378,10336,15310,0.079,551
2019-11-13T03:34:55,42.805,6.029,CST-1368DR,7378,10336,15311,0.079,551
2019-11-13T03:37:56,42.805,6.029,CST-1368DR,7378,10335,15310,0.079,551
2019-11-13T03:40:58,42.805,6.029,CST-1368DR,7378,10335,15309,0.079,551
2019-11-13T03:44:00,42.805,6.029,CST-1368DR,7378,10335,15310,0.079,551
2019-11-13T03:47:01,42.805,6.029,CST-1368DR,7378,10335,15310,0.079,551
2019-11-13T03:50:03,42.805,6.029,CST-1368DR,7378,10336,15310,0.079,551
2019-11-13T03:53:05,42.805,6.029,CST-1368DR,7378,10337,15312,0.079,551
2019-11-13T03:56:06,42.805,6.029,CST-1368DR,7378,10336,15310,0.079,551
2019-11-13T03:59:08,42.805,6.029,CST-1368DR,7378,10332,15304,0.081,551
2019-11-13T04:02:09,42.805,6.029,CST-1368DR,7378,10336,15311,0.079,551
2019-11-13T04:05:11,42.805,6.029,CST-1368DR,7378,10335,15309,0.079,551
2019-11-13T04:08:13,42.805,6.029,CST-1368DR,7378,10334,15308,0.080,551
2019-11-13T04:11:14,42.805,6.029,CST-1368DR,7378,10337,15312,0.079,551
2019-11-13T04:14:16,42.805,6.029,CST-1368DR,7378,10334,15308,0.080,551
2019-11-13T04:17:18,42.805,6.029,CST-1368DR,7378,10336,15311,0.079,550
2019-11-13T04:20:19,42.805,6.029,CST-1368DR,7378,10336,15311,0.079,551
2019-11-13T04:23:21,42.805,6.029,CST-1368DR,7378,10335,15309,0.079,551
2019-11-13T04:26:23,42.805,6.029,CST-1368DR,7378,10336,15311,0.079,550
2019-11-13T04:29:24,42.805,6.029,CST-1368DR,7378,10335,15309,0.079,551
2019-11-13T04:32:26,42.805,6.029,CST-1368DR,7378,10335,15309,0.079,551
2019-11-13T04:35:28,42.805,6.029,CST-1368DR,7378,10336,15310,0.079,551
2019-11-13T04:38:29,42.805,6.029,CST-1368DR,7378,10333,15307,0.080,551
2019-11-13T04:41:31,42.805,6.029,CST-1368DR,7378,10334,15308,0.080,551
2019-11-13T04:44:33,42.805,6.029,CST-1368DR,7378,10336,15311,0.079,551
2019-11-13T04:47:34,42.805,6.029,CST-1368DR,7378,10335,15310,0.079,551
2019-11-13T04:50:36,42.805,6.029,CST-1368DR,7378,10335,15310,0.079,551
2019-11-13T04:53:38,42.805,6.029,CST-1368DR,7378,10335,15310,0.079,551
2019-11-13T04:56:39,42.805,6.029,CST-1368DR,7378,10336,15311,0.079,551
2019-11-13T04:59:41,42.805,6.029,CST-1368DR,7378,10335,15310,0.079,551
2019-11-13T05:02:42,42.805,6.029,CST-1368DR,7378,10337,15312,0.079,551
2019-11-13T05:05:44,42.805,6.029,CST-1368DR,7378,10336,15311,0.079,551
2019-11-13T05:08:46,42.805,6.029,CST-1368DR,7378,10334,15308,0.080,551
2019-11-13T05:11:47,42.805,6.029,CST-1368DR,7378,10335,15310,0.079,551
2019-11-13T05:14:49,42.805,6.029,CST-1368DR,7378,10336,15311,0.079,551
2019-11-13T05:17:51,42.805,6.029,CST-1368DR,7378,10336,15310,0.079,551
2019-11-13T05:20:52,42.805,6.029,CST-1368DR,7378,10336,15311,0.079,551
2019-11-13T05:23:54,42.805,6.029,CST-1368DR,7378,10333,15307,0.080,551
2019-11-13T05:26:56,42.805,6.029,CST-1368DR,7378,10335,15310,0.079,551
2019-11-13T05:29:57,42.805,6.029,CST-1368DR,7378,10334,15308,0.080,551
2019-11-13T05:32:59,42.805,6.029,CST-1368DR,7378,10335,15309,0.079,551
2019-11-13T05:36:00,42.805,6.029,CST-1368DR,7378,10335,15309,0.079,551
2019-11-13T05:39:02,42.805,6.029,CST-1368DR,7378,10335,15309,0.079,551
2019-11-13T05:42:04,42.805,6.029,CST-1368DR,7378,10335,15309,0.079,551
2019-11-13T05:45:05,42.805,6.029,CST-1368DR,7378,10333,15307,0.080,551
2019-11-13T05:48:07,42.805,6.029,CST-1368DR,7378,10335,15310,0.079,551
2019-11-13T05:51:09,42.805,6.029,CST-1368DR,7378,10335,15310,0.079,551
2019-11-13T05:54:10,42.805,6.029,CST-1368DR,7377,10335,15311,0.079,551
2019-11-13T05:57:12,42.805,6.029,CST-1368DR,7377,10333,15309,0.079,551
2019-11-13T06:00:14,42.805,6.029,CST-1368DR,7377,10333,15309,0.079,551
2019-11-13T06:03:15,42.805,6.029,CST-1368DR,7377,10335,15311,0.079,550
2019-11-13T06:06:17,42.805,6.029,CST-1368DR,7377,10333,15309,0.079,551
2019-11-13T06:09:19,42.805,6.029,CST-1368DR,7377,10334,15310,0.079,551
2019-11-13T06:12:20,42.805,6.029,CST-1368DR,7377,10333,15308,0.080,550
2019-11-13T06:15:22,42.805,6.029,CST-1368DR,7377,10334,15310,0.079,551
2019-11-13T06:18:23,42.805,6.029,CST-1368DR,7377,10334,15310,0.079,551
2019-11-13T06:21:25,42.805,6.029,CST-1368DR,7377,10332,15307,0.080,551
2019-11-13T06:24:27,42.805,6.029,CST-1368DR,7377,10335,15311,0.079,551
2019-11-13T06:27:28,42.805,6.029,CST-1368DR,7377,10334,15310,0.079,551
2019-11-13T06:30:30,42.805,6.029,CST-1368DR,7377,10333,15308,0.080,550
2019-11-13T06:33:32,42.805,6.029,CST-1368DR,7377,10336,15312,0.079,551
2019-11-13T06:36:33,42.805,6.029,CST-1368DR,7377,10333,15309,0.079,551
2019-11-13T06:39:35,42.805,6.029,CST-1368DR,7377,10335,15311,0.079,551
2019-11-13T06:42:37,42.805,6.029,CST-1368DR,7377,10335,15312,0.079,550
2019-11-13T06:45:38,42.805,6.029,CST-1368DR,7377,10333,15308,0.080,551
2019-11-13T06:48:40,42.805,6.029,CST-1368DR,7377,10335,15311,0.079,550
2019-11-13T06:51:41,42.805,6.029,CST-1368DR,7377,10334,15310,0.079,551
2019-11-13T06:54:43,42.805,6.029,CST-1368DR,7377,10335,15312,0.079,551
2019-11-13T06:57:45,42.805,6.029,CST-1368DR,7377,10336,15312,0.079,551
2019-11-13T07:00:46,42.805,6.029,CST-1368DR,7377,10335,15312,0.079,551
2019-11-13T07:03:48,42.805,6.029,CST-1368DR,7377,10332,15307,0.080,551
2019-11-13T07:06:50,42.805,6.029,CST-1368DR,7377,10333,15309,0.079,551
2019-11-13T07:09:51,42.805,6.029,CST-1368DR,7377,10332,15307,0.080,551
2019-11-13T07:12:53,42.805,6.029,CST-1368DR,7377,10334,15310,0.079,551
2019-11-13T07:15:55,42.805,6.029,CST-1368DR,7377,10333,15309,0.079,551
2019-11-13T07:18:57,42.805,6.029,CST-1368DR,7377,10334,15310,0.079,551
2019-11-13T07:21:58,42.805,6.029,CST-1368DR,7377,10334,15310,0.079,551
2019-11-13T07:25:00,42.805,6.029,CST-1368DR,7377,10335,15312,0.079,551
2019-11-13T07:28:02,42.805,6.029,CST-1368DR,7377,10335,15311,0.079,551
2019-11-13T07:31:03,42.805,6.029,CST-1368DR,7377,10334,15310,0.079,551
2019-11-13T07:34:05,42.805,6.029,CST-1368DR,7377,10335,15311,0.079,551
2019-11-13T07:37:07,42.805,6.029,CST-1368DR,7377,10335,15311,0.079,551
2019-11-13T07:40:08,42.805,6.029,CST-1368DR,7377,10333,15308,0.080,551
2019-11-13T07:43:10,42.805,6.029,CST-1368DR,7377,10334,15310,0.079,551
2019-11-13T07:46:12,42.805,6.029,CST-1368DR,7377,10333,15309,0.079,551
2019-11-13T07:49:14,42.805,6.029,CST-1368DR,7377,10333,15309,0.079,551
2019-11-13T07:52:15,42.805,6.029,CST-1368DR,7377,10332,15307,0.080,551
2019-11-13T07:55:17,42.805,6.029,CST-1368DR,7377,10335,15311,0.079,550
2019-11-13T07:58:18,42.805,6.029,CST-1368DR,7377,10333,15309,0.079,551
2019-11-13T08:01:20,42.805,6.029,CST-1368DR,7377,10332,15307,0.080,551
2019-11-13T08:04:22,42.805,6.029,CST-1368DR,7376,10334,15312,0.079,551
2019-11-13T08:07:24,42.805,6.029,CST-1368DR,7377,10333,15308,0.080,550
2019-11-13T08:10:25,42.805,6.029,CST-1368DR,7376,10334,15312,0.079,550
2019-11-13T08:13:27,42.805,6.029,CST-1368DR,7376,10333,15311,0.079,551
2019-11-13T08:16:28,42.805,6.029,CST-1368DR,7376,10332,15309,0.079,551
2019-11-13T08:19:30,42.805,6.029,CST-1368DR,7377,10334,15310,0.079,551
2019-11-13T08:22:32,42.805,6.029,CST-1368DR,7376,10333,15310,0.079,551
2019-11-13T08:25:33,42.805,6.029,CST-1368DR,7376,10333,15310,0.079,551
2019-11-13T08:28:35,42.805,6.029,CST-1368DR,7376,10333,15311,0.079,551
2019-11-13T08:31:37,42.805,6.029,CST-1368DR,7376,10333,15311,0.079,551
2019-11-13T08:34:38,42.805,6.029,CST-1368DR,7376,10333,15311,0.079,551
2019-11-13T08:37:40,42.805,6.029,CST-1368DR,7376,10333,15310,0.079,550
2019-11-13T08:40:42,42.805,6.029,CST-1368DR,7376,10331,15308,0.080,551
2019-11-13T08:43:43,42.805,6.029,CST-1368DR,7376,10333,15311,0.079,551
2019-11-13T08:46:45,42.805,6.029,CST-1368DR,7376,10333,15310,0.079,550
2019-11-13T08:49:47,42.805,6.029,CST-1368DR,7376,10330,15306,0.080,551
2019-11-13T08:52:48,42.805,6.029,CST-1368DR,7376,10332,15309,0.079,551
2019-11-13T08:55:50,42.805,6.029,CST-1368DR,7376,10333,15311,0.079,551
2019-11-13T08:58:52,42.805,6.029,CST-1368DR,7376,10333,15311,0.079,551
2019-11-13T09:01:53,42.805,6.029,CST-1368DR,7376,10333,15310,0.079,551
2019-11-13T09:04:55,42.805,6.029,CST-1368DR,7377,10335,15311,0.079,550
2019-11-13T09:07:57,42.805,6.029,CST-1368DR,7376,10334,15312,0.079,551
2019-11-13T09:10:58,42.805,6.029,CST-1368DR,7376,10331,15307,0.080,551
2019-11-13T09:14:00,42.805,6.029,CST-1368DR,7376,10327,15302,0.081,550
2019-11-13T09:17:02,42.805,6.029,CST-1368DR,7376,10334,15312,0.079,551
2019-11-13T09:20:03,42.805,6.029,CST-1368DR,7376,10335,15313,0.078,551
2019-11-13T09:23:05,42.805,6.029,CST-1368DR,7376,10333,15310,0.079,551
2019-11-13T09:26:07,42.805,6.029,CST-1368DR,7376,10333,15311,0.079,551
2019-11-13T09:29:08,42.805,6.029,CST-1368DR,7376,10333,15311,0.079,551
2019-11-13T09:32:10,42.805,6.029,CST-1368DR,7376,10332,15309,0.079,551
2019-11-13T09:35:11,42.805,6.029,CST-1368DR,7376,10333,15310,0.079,551
2019-11-13T09:38:13,42.805,6.029,CST-1368DR,7376,10332,15309,0.079,551
2019-11-13T09:41:15,42.805,6.029,CST-1368DR,7376,10331,15308,0.080,551
2019-11-13T09:44:16,42.805,6.029,CST-1368DR,7376,10333,15310,0.079,551
2019-11-13T09:47:18,42.805,6.029,CST-1368DR,7376,10333,15311,0.079,550
2019-11-13T09:50:20,42.805,6.029,CST-1368DR,7376,10333,15311,0.079,551
2019-11-13T09:53:21,42.805,6.029,CST-1368DR,7376,10333,15311,0.079,551
2019-11-13T09:56:23,42.805,6.029,CST-1368DR,7376,10332,15308,0.080,551
2019-11-13T09:59:25,42.805,6.029,CST-1368DR,7376,10333,15311,0.079,551
2019-11-13T10:02:26,42.805,6.029,CST-1368DR,7376,10333,15311,0.079,551
2019-11-13T10:05:28,42.805,6.029,CST-1368DR,7376,10332,15309,0.079,551
2019-11-13T10:08:29,42.805,6.029,CST-1368DR,7376,10333,15310,0.079,551
2019-11-13T10:11:31,42.805,6.029,CST-1368DR,7376,10333,15310,0.079,550
2019-11-13T10:14:33,42.805,6.029,CST-1368DR,7376,10333,15310,0.079,551
2019-11-13T10:17:34,42.805,6.029,CST-1368DR,7376,10333,15310,0.079,551
2019-11-13T10:20:36,42.805,6.029,CST-1368DR,7376,10334,15312,0.079,550
2019-11-13T10:23:37,42.805,6.029,CST-1368DR,7376,10334,15312,0.079,551
2019-11-13T10:26:39,42.805,6.029,CST-1368DR,7376,10334,15312,0.079,551
2019-11-13T10:29:41,42.805,6.029,CST-1368DR,7376,10334,15312,0.079,551
2019-11-13T10:32:42,42.805,6.029,CST-1368DR,7376,10334,15312,0.079,550
2019-11-13T10:35:44,42.805,6.029,CST-1368DR,7376,10333,15310,0.079,551
2019-11-13T10:38:46,42.805,6.029,CST-1368DR,7376,10334,15312,0.079,551
2019-11-13T10:41:47,42.805,6.029,CST-1368DR,7376,10333,15310,0.079,551
2019-11-13T10:44:49,42.805,6.029,CST-1368DR,7376,10332,15309,0.079,551
2019-11-13T10:47:50,42.805,6.029,CST-1368DR,7376,10332,15309,0.079,551
2019-11-13T10:50:52,42.805,6.029,CST-1368DR,7376,10334,15312,0.079,551
2019-11-13T10:53:54,42.805,6.029,CST-1368DR,7376,10334,15312,0.079,551
2019-11-13T10:56:55,42.805,6.029,CST-1368DR,7376,10333,15311,0.079,551
2019-11-13T10:59:57,42.805,6.029,CST-1368DR,7376,10333,15310,0.079,551
2019-11-13T11:02:59,42.805,6.029,CST-1368DR,7376,10332,15309,0.079,551
2019-11-13T11:06:00,42.805,6.029,CST-1368DR,7376,10332,15309,0.079,550
2019-11-13T11:09:02,42.805,6.029,CST-1368DR,7376,10333,15310,0.079,551
2019-11-13T11:12:03,42.805,6.029,CST-1368DR,7376,10333,15310,0.079,551
2019-11-13T11:15:05,42.805,6.029,CST-1368DR,7376,10332,15309,0.079,550
2019-11-13T11:18:07,42.805,6.029,CST-1368DR,7376,10333,15310,0.079,551
2019-11-13T11:21:08,42.805,6.029,CST-1368DR,7376,10333,15310,0.079,551
2019-11-13T11:24:10,42.805,6.029,CST-1368DR,7376,10332,15309,0.079,551
2019-11-13T11:27:12,42.805,6.029,CST-1368DR,7376,10332,15309,0.079,551
2019-11-13T11:30:13,42.805,6.029,CST-1368DR,7376,10333,15310,0.079,551
2019-11-13T11:33:15,42.805,6.029,CST-1368DR,7376,10332,15309,0.079,551
2019-11-13T11:36:16,42.805,6.029,CST-1368DR,7376,10333,15310,0.079,550
2019-11-13T11:39:18,42.805,6.029,CST-1368DR,7376,10332,15309,0.079,551
2019-11-13T11:42:20,42.805,6.029,CST-1368DR,7376,10332,15309,0.079,551
2019-11-13T11:45:21,42.805,6.029,CST-1368DR,7376,10332,15309,0.079,551
2019-11-13T11:48:23,42.805,6.029,CST-1368DR,7376,10331,15308,0.080,551
2019-11-13T11:51:25,42.805,6.029,CST-1368DR,7376,10332,15308,0.080,551
2019-11-13T11:54:26,42.805,6.029,CST-1368DR,7376,10332,15309,0.079,551
2019-11-13T11:57:28,42.805,6.029,CST-1368DR,7376,10332,15309,0.079,551
2019-11-13T12:00:30,42.805,6.029,CST-1368DR,7376,10332,15309,0.079,551
2019-11-13T12:03:31,42.805,6.029,CST-1368DR,7376,10332,15309,0.079,551
2019-11-13T12:06:33,42.805,6.029,CST-1368DR,7376,10331,15308,0.080,550
2019-11-13T12:09:34,42.805,6.029,CST-1368DR,7376,10332,15309,0.079,551
2019-11-13T12:12:36,42.805,6.029,CST-1368DR,7376,10332,15308,0.080,551
2019-11-13T12:15:38,42.805,6.029,CST-1368DR,7376,10333,15310,0.079,551
2019-11-13T12:18:39,42.805,6.029,CST-1368DR,7376,10332,15309,0.079,551
2019-11-13T12:21:41,42.805,6.029,CST-1368DR,7376,10330,15305,0.080,551
2019-11-13T12:24:43,42.805,6.029,CST-1368DR,7376,10332,15309,0.079,551
2019-11-13T12:27:44,42.805,6.029,CST-1368DR,7376,10332,15308,0.080,551
2019-11-13T12:30:46,42.805,6.029,CST-1368DR,7375,10332,15310,0.079,551
2019-11-13T12:33:48,42.805,6.029,CST-1368DR,7376,10333,15310,0.079,551
2019-11-13T12:36:49,42.805,6.029,CST-1368DR,7376,10332,15309,0.079,551
2019-11-13T12:39:51,42.805,6.029,CST-1368DR,7375,10332,15311,0.079,551
2019-11-13T12:42:53,42.805,6.029,CST-1368DR,7375,10333,15312,0.079,551
2019-11-13T12:45:54,42.805,6.029,CST-1368DR,7375,10332,15311,0.079,551
2019-11-13T12:48:56,42.805,6.029,CST-1368DR,7375,10331,15309,0.079,551
2019-11-13T12:51:58,42.805,6.029,CST-1368DR,7375,10330,15308,0.080,550
2019-11-13T12:54:59,42.805,6.029,CST-1368DR,7375,10332,15311,0.079,551
2019-11-13T12:58:01,42.805,6.029,CST-1368DR,7375,10332,15311,0.079,551
2019-11-13T13:01:02,42.805,6.029,CST-1368DR,7375,10332,15311,0.079,551
2019-11-13T13:04:04,42.805,6.029,CST-1368DR,7375,10332,15310,0.079,551
2019-11-13T13:07:06,42.805,6.029,CST-1368DR,7375,10331,15309,0.079,551
2019-11-13T13:10:07,42.805,6.029,CST-1368DR,7375,10332,15310,0.079,551
2019-11-13T13:13:09,42.805,6.029,CST-1368DR,7375,10332,15310,0.079,551
2019-11-13T13:16:11,42.805,6.029,CST-1368DR,7375,10333,15312,0.079,551
2019-11-13T13:19:12,42.805,6.029,CST-1368DR,7375,10331,15310,0.079,551
2019-11-13T13:22:14,42.805,6.029,CST-1368DR,7375,10332,15311,0.079,551
2019-11-13T13:25:16,42.805,6.029,CST-1368DR,7375,10331,15310,0.079,551
2019-11-13T13:28:17,42.805,6.029,CST-1368DR,7375,10331,15309,0.079,551
2019-11-13T13:31:19,42.805,6.029,CST-1368DR,7375,10332,15311,0.079,551
2019-11-13T13:34:21,42.805,6.029,CST-1368DR,7375,10331,15309,0.079,551
2019-11-13T13:37:22,42.805,6.029,CST-1368DR,7375,10331,15309,0.079,551
2019-11-13T13:40:24,42.805,6.029,CST-1368DR,7375,10331,15309,0.079,551
2019-11-13T13:43:26,42.805,6.029,CST-1368DR,7375,10332,15310,0.079,551
2019-11-13T13:46:28,42.805,6.029,CST-1368DR,7375,10331,15310,0.079,551
2019-11-13T13:49:29,42.805,6.029,CST-1368DR,7375,10332,15311,0.079,551
2019-11-13T13:52:31,42.805,6.029,CST-1368DR,7375,10331,15310,0.079,551
2019-11-13T13:55:32,42.805,6.029,CST-1368DR,7375,10332,15311,0.079,551
2019-11-13T13:58:34,42.805,6.029,CST-1368DR,7375,10332,15311,0.079,550
2019-11-13T14:01:36,42.805,6.029,CST-1368DR,7375,10331,15309,0.079,551
2019-11-13T14:04:37,42.805,6.029,CST-1368DR,7375,10331,15309,0.079,551
2019-11-13T14:07:39,42.805,6.029,CST-1368DR,7375,10331,15309,0.079,551
2019-11-13T14:10:41,42.805,6.029,CST-1368DR,7375,10331,15309,0.079,551
2019-11-13T14:13:42,42.805,6.029,CST-1368DR,7375,10331,15309,0.079,551
2019-11-13T14:16:44,42.805,6.029,CST-1368DR,7375,10332,15310,0.079,551
2019-11-13T14:19:46,42.805,6.029,CST-1368DR,7375,10331,15310,0.079,551
2019-11-13T14:22:47,42.805,6.029,CST-1368DR,7375,10331,15309,0.079,551
2019-11-13T14:25:49,42.805,6.029,CST-1368DR,7375,10332,15311,0.079,550
2019-11-13T14:28:51,42.805,6.029,CST-1368DR,7375,10332,15311,0.079,551
2019-11-13T14:31:52,42.805,6.029,CST-1368DR,7375,10331,15309,0.079,551
2019-11-13T14:34:54,42.805,6.029,CST-1368DR,7375,10331,15310,0.079,551
2019-11-13T14:37:56,42.805,6.029,CST-1368DR,7375,10331,15309,0.079,551
2019-11-13T14:40:57,42.805,6.029,CST-1368DR,7375,10332,15310,0.079,551
2019-11-13T14:43:59,42.805,6.029,CST-1368DR,7375,10331,15309,0.079,551
2019-11-13T14:47:01,42.805,6.029,CST-1368DR,7375,10332,15310,0.079,551
2019-11-13T14:50:03,42.805,6.029,CST-1368DR,7375,10331,15309,0.079,551
2019-11-13T14:53:04,42.805,6.029,CST-1368DR,7375,10331,15309,0.079,551
2019-11-13T14:56:06,42.805,6.029,CST-1368DR,7375,10331,15309,0.079,550
2019-11-13T14:59:08,42.805,6.029,CST-1368DR,7375,10331,15309,0.079,551
2019-11-13T15:02:09,42.805,6.029,CST-1368DR,7375,10331,15310,0.079,551
2019-11-13T15:05:11,42.805,6.029,CST-1368DR,7375,10331,15309,0.079,551
2019-11-13T15:08:13,42.805,6.029,CST-1368DR,7375,10331,15309,0.079,551
2019-11-13T15:11:14,42.805,6.029,CST-1368DR,7375,10331,15309,0.079,551
2019-11-13T15:14:16,42.805,6.029,CST-1368DR,7375,10331,15309,0.079,551
2019-11-13T15:17:18,42.805,6.029,CST-1368DR,7375,10331,15309,0.079,551
2019-11-13T15:20:19,42.805,6.029,CST-1368DR,7375,10332,15310,0.079,551
2019-11-13T15:23:21,42.805,6.029,CST-1368DR,7375,10331,15309,0.079,551
2019-11-13T15:26:23,42.805,6.029,CST-1368DR,7375,10330,15308,0.080,551
2019-11-13T15:29:24,42.805,6.029,CST-1368DR,7375,10332,15310,0.079,551
2019-11-13T15:32:26,42.805,6.029,CST-1368DR,7375,10331,15309,0.079,551
2019-11-13T15:35:28,42.805,6.029,CST-1368DR,7375,10331,15310,0.079,551
2019-11-13T15:38:29,42.805,6.029,CST-1368DR,7375,10331,15309,0.079,551
2019-11-13T15:41:31,42.805,6.029,CST-1368DR,7375,10331,15309,0.079,551
2019-11-13T15:44:33,42.805,6.029,CST-1368DR,7375,10331,15309,0.079,551
2019-11-13T15:47:34,42.805,6.029,CST-1368DR,7375,10330,15308,0.080,551
2019-11-13T15:50:36,42.805,6.029,CST-1368DR,7375,10331,15309,0.079,551
2019-11-13T15:53:38,42.805,6.029,CST-1368DR,7375,10331,15309,0.079,551
2019-11-13T15:56:39,42.805,6.029,CST-1368DR,7375,10331,15309,0.079,551
2019-11-13T15:59:41,42.805,6.029,CST-1368DR,7375,10331,15309,0.079,551
2019-11-13T16:02:43,42.805,6.029,CST-1368DR,7375,10331,15309,0.079,550
2019-11-13T16:05:44,42.805,6.029,CST-1368DR,7375,10330,15308,0.080,551
2019-11-13T16:08:46,42.805,6.029,CST-1368DR,7375,10325,15300,0.082,551
2019-11-13T16:11:48,42.805,6.029,CST-1368DR,7375,10331,15309,0.079,551
2019-11-13T16:14:49,42.805,6.029,CST-1368DR,7375,10329,15307,0.080,551
2019-11-13T16:17:51,42.805,6.029,CST-1368DR,7375,10331,15309,0.079,551
2019-11-13T16:20:52,42.805,6.029,CST-1368DR,7375,10332,15310,0.079,551
2019-11-13T16:23:54,42.805,6.029,CST-1368DR,7375,10330,15307,0.080,551
2019-11-13T16:26:56,42.805,6.029,CST-1368DR,7375,10329,15307,0.080,551
2019-11-13T16:29:57,42.805,6.029,CST-1368DR,7375,10331,15309,0.079,551
2019-11-13T16:32:59,42.805,6.029,CST-1368DR,7374,10331,15311,0.079,551
2019-11-13T16:36:01,42.805,6.029,CST-1368DR,7374,10330,15309,0.079,551
2019-11-13T16:39:03,42.805,6.029,CST-1368DR,7375,10331,15309,0.079,551